PROFILE

 METAR AND TAF INFORMATION
ADDS - METARS form results

(0431 UTC 26 January 2021)
http://aviationweather.gov/metar/data/
 
EDDH 260420Z VRB02KT 5000 BR BKN016 M01/M02 Q1008 R88/710195 TEMPO 4000 BKN014
EDDH 260350Z 05002KT 5000 BR BKN016 M02/M02 Q1008 R88/710195 TEMPO 4000 BKN008
TAF AMD EDDH 260305Z 2603/2706 VRB03KT 9999 BKN015 TEMPO 2603/2609 4000 BR BKN010 PROB40 TEMPO 2603/2613 BKN008 BECMG 2607/2609 29007KT BECMG 2616/2618 23006KT TEMPO 2623/2706 BKN012 PROB30 TEMPO 2702/2704 4000 -RASN BKN008 

 AIRPORT MAP

 RUNWAY INFORMATION
Runway 05 Runway length 10663 ft Runway width 150 ft
Runway elevation 32 ft Runway displaced threshold 978 ft Runway heading 50
Runway 23 Runway length 10663 ft Runway width 150 ft
Runway elevation 43 ft Runway displaced threshold 512 ft Runway heading 230
Runway 15 Runway length 12028 ft Runway width 150 ft
Runway elevation 53 ft Runway displaced threshold 0 ft Runway heading 153
Runway 33 Runway length 12028 ft Runway width 150 ft
Runway elevation 35 ft Runway displaced threshold 1464 ft Runway heading 333

 AIRPORT FREQUENCIES
Type ATIS Name ATIS Frequency 123.125 MHZ
Type DIR Name DIRECTOR Frequency 118.2 MHZ
Type GND Name GND Frequency 121.8 MHZ
Type RDR Name BREMEN RAD Frequency 134.25 MHZ
Type RMP Name APRON Frequency 121.7 MHZ
Type TWR Name TWR Frequency 126.85 MHZ

 AIRPORT NEAR NAVIGATION AIDS
Type DME Name Alster Frequency 115800 KHZ
Type NDB Name Hamburg West Frequency 351 KHZ
Type NDB Name Hamburg North Frequency 323 KHZ
Type VORTAC Name Hamburg Frequency 113100 KHZ
Type NDB Name Hamburg Frequency 339 KHZ